Location: B�retswil
(47.3376°N, 8.8534°E)
Time: 04:01:37
(UTC+00:00)

Cosmos 1703 Rocket - Pass Details

Date: 03 March 2021
Orbit: 604 x 634 km, 82.5° (Epoch: 17 April)

Event Time Altitude Azimuth Distance (km) Brightness Sun altitude
Rises 18:47:23 0° 350° (N) 2,914 7.3 -16.8°
Reaches altitude 10° 18:49:38 10° 351° (N) 1,997 6.4 -17.2°
Maximum altitude 18:54:04 89° 72° (ENE) 623 3.5 -17.9°
Drops below altitude 10° 18:58:25 10° 172° (S) 1,963 5.9 -18.6°
Enters shadow 18:59:28 - 172° (S) 2,387 6.4 -18.8°
